Deptford, New Jersey, United States
Lat: 39.83N, Lon: 75.13W
Wx Zone: NJZ017
Local Info
Past Weather Observations for Thursday, August 18, 2016

NOTE: This archive is for the closest National Weather Service station to Deptford. Information may differ from the station used for current weather conditions.

Click here for Long-term Archive

Time Weather Temperature Dewpoint Humidity Pressure Winds Precip Visibility
23:54
Mostly Cloudy
75°F / 24°C 70°F / 21°C 83% 29.98 in
(1015 mb)
SW 9.2 mph
(SW 15 kph)
- 10SM
23:03
Overcast
73°F / 23°C 72°F / 22°C 94% 29.98 in
(1015 mb)
E 9.2 mph
(E 15 kph)
- 10SM
22:54
Overcast
Thunder Storms
73°F / 23°C 72°F / 22°C 94% 29.98 in
(1015 mb)
NE 5.8 mph
(NE 9 kph)
0.12 in
(3.05 mm)
10SM
22:43
Overcast
Thunder Storms
75°F / 24°C 72°F / 22°C 89% 29.98 in
(1015 mb)
NNW 6.9 mph
(NNW 11 kph)
0.12 in
(3.05 mm)
10SM
22:35
Overcast
Light Rain
75°F / 24°C 70°F / 21°C 83% 29.98 in
(1015 mb)
NW 9.2 mph
(NW 15 kph)
0.12 in
(3.05 mm)
7SM
22:27
Overcast
Rain
75°F / 24°C 70°F / 21°C 83% 30.01 in
(1016 mb)
NW 15 mph
(NW 24 kph)
0.10 in
(2.54 mm)
5SM
22:10
Overcast
Light Rain
75°F / 24°C 70°F / 21°C 83% 29.98 in
(1015 mb)
NW 15 mph
(NW 24 kph)
0.01 in
(0.25 mm)
4SM
21:54
Mostly Cloudy
Light Rain
79°F / 26°C 70°F / 21°C 74% 29.98 in
(1015 mb)
NW 18.4 mph
(NW 30 kph)
0.00 in
(0.00 mm)
10SM
21:47
Mostly Cloudy
Light Rain
79°F / 26°C 66°F / 19°C 65% 29.98 in
(1015 mb)
NW 18.4 mph
(NW 30 kph)
0.00 in
(0.00 mm)
10SM
20:54
Mostly Cloudy
84°F / 29°C 68°F / 20°C 58% 29.98 in
(1015 mb)
SW 4.6 mph
(SW 7 kph)
- 10SM
19:54
Partly Cloudy
84°F / 29°C 66°F / 19°C 55% 29.95 in
(1014 mb)
SW 6.9 mph
(SW 11 kph)
- 10SM
18:54
Partly Cloudy
86°F / 30°C 64°F / 18°C 49% 29.95 in
(1014 mb)
NW 8.1 mph
(NW 13 kph)
- 10SM
17:54
Partly Cloudy
88°F / 31°C 64°F / 18°C 46% 29.95 in
(1014 mb)
NW 8.1 mph
(NW 13 kph)
- 10SM
16:54
Partly Cloudy
88°F / 31°C 64°F / 18°C 46% 29.95 in
(1014 mb)
WNW 9.2 mph
(WNW 15 kph)
- 10SM
15:54
Partly Cloudy
88°F / 31°C 64°F / 18°C 46% 29.95 in
(1014 mb)
Variable 4.6 mph
(Variable 7 kph)
- 10SM
14:54
Partly Cloudy
88°F / 31°C 64°F / 18°C 46% 29.98 in
(1015 mb)
NNW 10.4 mph
(NNW 17 kph)
- 10SM
13:54
Partly Cloudy
84°F / 29°C 64°F / 18°C 51% 29.98 in
(1015 mb)
NW 11.5 mph
(NW 19 kph)
- 10SM
12:54
Partly Cloudy
84°F / 29°C 66°F / 19°C 55% 30.01 in
(1016 mb)
SSW 8.1 mph
(SSW 13 kph)
- 10SM
11:54
Mostly Cloudy
82°F / 28°C 66°F / 19°C 58% 30.01 in
(1016 mb)
Variable 5.8 mph
(Variable 9 kph)
- 10SM
10:54
Mostly Cloudy
81°F / 27°C 70°F / 21°C 70% 30.01 in
(1016 mb)
N 8.1 mph
(N 13 kph)
- 10SM
10:40
Mostly Cloudy
81°F / 27°C 70°F / 21°C 70% 30.01 in
(1016 mb)
N 9.2 mph
(N 15 kph)
- 10SM
09:54
Mostly Cloudy
79°F / 26°C 70°F / 21°C 74% 30.04 in
(1017 mb)
NNW 8.1 mph
(NNW 13 kph)
- 10SM
09:37
Mostly Cloudy
79°F / 26°C 72°F / 22°C 79% 30.04 in
(1017 mb)
NE 5.8 mph
(NE 9 kph)
- 10SM
08:54
Mostly Cloudy
77°F / 25°C 72°F / 22°C 83% 30.04 in
(1017 mb)
NW 5.8 mph
(NW 9 kph)
- 10SM
08:40
Mostly Cloudy
75°F / 24°C 72°F / 22°C 89% 30.04 in
(1017 mb)
NW 4.6 mph
(NW 7 kph)
- 10SM
07:54
Overcast
75°F / 24°C 72°F / 22°C 89% 30.04 in
(1017 mb)
N 4.6 mph
(N 7 kph)
- 10SM
07:22
Overcast
75°F / 24°C 72°F / 22°C 89% 30.04 in
(1017 mb)
SSW 6.9 mph
(SSW 11 kph)
- 10SM
07:00
Overcast
75°F / 24°C 72°F / 22°C 89% 30.04 in
(1017 mb)
NNW 4.6 mph
(NNW 7 kph)
- 10SM
06:54
Mostly Cloudy
75°F / 24°C 72°F / 22°C 89% 30.04 in
(1017 mb)
Calm - 10SM
05:54
Overcast
73°F / 23°C 72°F / 22°C 94% 30.01 in
(1016 mb)
Calm 0.00 in
(0.00 mm)
10SM
05:35
Mostly Cloudy
Light Rain
73°F / 23°C 72°F / 22°C 94% 30.01 in
(1016 mb)
NW 6.9 mph
(NW 11 kph)
0.00 in
(0.00 mm)
8SM
05:30
Overcast
Light Rain
73°F / 23°C 72°F / 22°C 94% 30.01 in
(1016 mb)
NW 5.8 mph
(NW 9 kph)
0.00 in
(0.00 mm)
6SM
05:24
Overcast
Light Rain
73°F / 23°C 72°F / 22°C 94% 30.01 in
(1016 mb)
NW 6.9 mph
(NW 11 kph)
0.00 in
(0.00 mm)
8SM
04:54
Overcast
75°F / 24°C 70°F / 21°C 83% 30.01 in
(1016 mb)
WNW 9.2 mph
(WNW 15 kph)
0.00 in
(0.00 mm)
10SM
03:54
Overcast
73°F / 23°C 72°F / 22°C 94% 30.01 in
(1016 mb)
SSW 3.5 mph
(SSW 6 kph)
- 10SM
03:07
Overcast
73°F / 23°C 72°F / 22°C 94% 30.01 in
(1016 mb)
SSW 6.9 mph
(SSW 11 kph)
- 10SM
02:54
Overcast
75°F / 24°C 72°F / 22°C 89% 30.01 in
(1016 mb)
SW 6.9 mph
(SW 11 kph)
0.00 in
(0.00 mm)
9SM
01:54
Overcast
Light Rain
75°F / 24°C 72°F / 22°C 89% 30.04 in
(1017 mb)
SSW 4.6 mph
(SSW 7 kph)
0.01 in
(0.25 mm)
9SM
00:54
Overcast
Light Rain
75°F / 24°C 70°F / 21°C 83% 30.04 in
(1017 mb)
Calm 0.07 in
(1.78 mm)
9SM
00:27
Overcast
Rain
75°F / 24°C 70°F / 21°C 83% 30.04 in
(1017 mb)
NE 4.6 mph
(NE 7 kph)
0.05 in
(1.27 mm)
8SM
Time Weather Temperature Dewpoint Humidity Pressure Winds Precip Visibility


Weather for websites

WeatherForYou.com, LLC is not responsible for any damages or problems caused by this service. Current weather conditions are obtained from the closest station including government and personal stations which may have varying degrees of accuracy. Weather forecasts are derived from the NOAA NDFD. Like all things, this site belongs to Jesus Christ... He just trusts us to maintain it. If you have any questions or comments email webmaster@weatherforyou.com

Copyright © 2016, WeatherForYou.com LLC. All rights reserved.